User: anonymous   Login
Location: Unspecified
(40.9447°N, 78.9903°W)
Time: 12:54:46
(UTC-04:00)
Language:

Hubble Space Telescope - Orbit

View from above orbital plane
View from above orbital plane
View from above satellite
View from above satellite

Ground track
Ground track

The orbit data is extracted from the following two-line orbital elements,

1 20580U 90037B   21259.49340718  .00000732  00000-0  33254-4 0  9992
2 20580  28.4693 182.6553 0002506 326.2546 197.1735 15.09736868524760
Epoch (UTC): 16 September 2021 11:50:30
Eccentricity: 0.0002506
inclination: 28.4693°
perigee height: 535 km
apogee height: 539 km
right ascension of ascending node: 182.6553°
argument of perigee: 326.2546°
revolutions per day: 15.09736868
mean anomaly at epoch: 197.1735°
orbit number at epoch: 52476

The dashed part of the orbit path shows where the satellite is in the earth's shadow,  

DLR